Vorticity
14 15 15 16 17 15 11 8 6 5 5 5 5 5 4 3 3 3 6 7 5 8 10 9 5 4 6 6 6 4 5 11 13 11 9 7 19 31 15 0 8 10 6 7 7 10 14 15 10 6 10 12 9 10 9 7 9 8 5 5 4 5 6 8 10 8 3 5 5 2 2 4 6 8 8 6 8 9 10 11 10 9 9 9 8
12 11 13 15 12 9 6 6 6 5 6 6 4 4 3 2 4 5 6 6 7 9 10 10 8 6 7 6 5 4 3 13 19 9 4 7 13 22 17 2 1 4 5 7 8 9 13 14 11 9 11 11 5 3 3 5 10 9 4 4 5 6 8 9 11 11 6 3 6 8 10 8 5 7 8 7 8 9 9 8 9 11 11 9 7
13 11 11 11 7 7 7 6 7 6 5 4 3 4 4 4 6 6 5 5 7 11 13 15 12 5 2 2 5 8 3 13 26 6 -12 -0 10 10 12 8 2 2 5 6 3 4 12 15 12 11 12 12 7 2 5 13 17 11 3 4 7 7 9 11 12 8 3 3 7 10 13 12 9 7 6 5 7 9 8 6 7 10 12 10 8
12 11 10 8 6 8 8 6 6 5 5 4 4 5 5 7 9 7 6 5 7 15 18 14 8 1 1 3 6 15 14 22 46 30 -13 -14 6 8 7 6 5 9 14 10 -2 -3 11 14 8 11 14 13 11 9 13 17 13 6 4 6 8 8 7 9 7 -1 -5 -0 5 6 7 9 11 9 7 6 8 9 9 6 4 8 11 10 8
9 9 7 7 8 8 6 6 7 6 7 8 7 7 7 8 6 1 3 5 6 16 20 13 6 2 7 12 10 16 16 13 34 41 14 2 8 8 7 5 3 5 13 14 2 -4 7 10 4 8 12 10 11 11 12 10 6 4 5 3 5 11 11 4 -3 -7 -7 -4 -3 1 3 5 9 11 9 9 9 9 10 8 8 11 10 7 6
9 8 7 8 8 8 8 9 10 10 11 12 12 11 8 6 0 -6 -2 3 3 9 15 15 14 9 10 14 9 13 17 2 -14 -17 -5 15 17 9 9 10 7 4 6 12 9 2 6 8 5 7 10 10 11 10 8 8 6 6 6 3 2 7 11 6 -4 -7 -3 -3 -4 -0 2 3 8 12 11 9 8 9 10 11 13 15 11 7 7
10 9 9 11 11 10 9 8 8 8 8 9 8 7 4 2 -1 -6 -4 1 2 4 9 14 15 11 9 8 7 16 29 27 3 -23 -18 9 17 12 11 10 10 9 5 9 11 6 7 10 6 6 11 12 10 9 8 7 8 7 7 7 3 -1 2 5 1 -1 0 -1 -4 -4 -2 3 10 14 12 11 10 10 11 12 14 13 12 12 12
13 11 10 11 8 4 3 3 5 6 7 7 6 5 5 4 2 0 -1 1 3 4 7 12 13 11 9 7 9 14 14 21 27 17 5 8 12 14 13 9 10 11 8 9 10 7 9 10 5 6 12 12 9 8 8 7 7 7 7 12 12 7 4 4 4 4 4 3 3 2 0 3 10 13 11 11 11 12 13 13 12 9 9 12 14
15 12 9 5 2 2 5 7 9 10 10 9 8 8 8 5 3 3 1 2 3 3 5 10 12 10 9 7 9 8 0 3 17 19 11 8 10 14 13 8 7 8 8 7 7 8 8 6 6 8 9 8 7 7 7 6 5 5 9 14 11 6 7 11 11 8 4 2 2 3 4 8 14 15 12 10 9 10 13 13 11 11 12 12 14
16 10 6 3 2 4 4 5 7 7 7 6 5 5 4 3 3 3 2 3 4 4 5 9 12 12 10 10 10 8 4 6 11 12 8 7 9 12 11 9 7 7 8 8 6 7 8 6 7 7 6 8 9 7 6 5 3 5 12 12 4 1 9 17 16 8 2 -1 -3 2 10 15 17 16 14 11 9 10 12 12 11 12 13 13 14
9 4 1 1 2 3 1 2 4 4 5 5 4 2 2 2 4 4 4 4 4 6 6 9 14 15 11 11 11 10 9 8 7 9 9 9 10 11 10 10 10 8 9 9 5 7 10 10 8 6 7 8 7 5 4 4 5 9 13 12 9 11 19 24 21 11 1 -3 -1 8 17 18 15 14 13 13 11 11 11 11 11 10 9 11 15
0 0 1 2 3 3 2 2 1 0 3 4 3 3 3 2 3 2 2 3 3 7 10 12 16 17 13 12 12 11 13 13 9 8 8 8 9 9 9 11 12 11 10 7 5 9 12 11 7 6 7 7 5 4 3 4 9 13 13 13 13 15 18 18 14 4 -5 -4 8 17 19 16 13 11 11 12 12 10 11 12 13 12 11 13 16
-0 3 4 3 2 2 1 1 1 0 1 2 3 4 3 1 1 -0 -0 2 5 10 14 17 19 16 13 13 13 10 11 13 12 8 7 9 9 8 11 14 13 11 9 6 7 13 15 11 7 5 5 3 3 5 5 4 6 7 5 4 4 5 8 7 3 -4 -5 4 17 21 17 15 11 8 10 12 10 9 12 12 12 13 13 14 15
4 4 2 -1 -1 -0 -1 -1 0 -0 -1 1 3 4 4 2 -2 -4 -2 2 7 15 22 24 20 15 12 12 12 10 10 12 11 9 9 9 8 9 12 13 11 11 10 8 9 15 16 8 1 2 5 3 1 4 5 -1 -4 -1 1 2 3 6 9 7 3 1 5 15 21 19 15 12 10 9 11 11 7 9 13 12 11 12 12 14 14
4 3 1 -1 -1 1 3 1 0 0 -0 0 1 4 7 5 -2 -4 -3 1 10 21 28 26 19 15 13 11 11 11 11 11 9 8 8 8 9 12 14 14 14 10 8 9 13 16 11 1 -4 1 7 6 5 8 7 1 -2 1 3 5 8 9 7 3 4 9 16 21 20 14 11 10 12 14 13 9 6 9 13 12 13 13 13 15 14
3 2 2 1 1 5 7 4 2 1 1 1 1 2 5 6 3 -1 -4 1 15 27 29 22 14 12 12 11 12 13 12 12 10 8 9 12 17 18 16 15 13 9 8 13 15 13 7 -1 -2 3 9 11 10 12 12 9 5 3 2 3 5 6 5 5 11 18 21 19 14 9 11 13 13 12 9 6 7 9 13 15 15 15 15 16 13
2 0 0 0 1 5 6 5 3 1 1 3 1 -1 1 3 5 1 -4 4 21 27 24 17 10 10 12 12 14 14 11 9 10 11 15 19 23 22 16 12 9 7 10 12 10 8 5 -0 -0 7 12 11 8 8 9 4 -0 4 9 9 8 10 11 13 18 20 17 12 10 11 14 12 9 8 7 8 11 13 15 17 15 16 16 15 12
3 1 0 -1 -2 3 6 5 2 -0 2 3 -2 -3 3 5 4 -0 -2 10 24 23 19 16 10 8 10 12 13 12 10 8 11 18 24 22 19 16 12 10 8 7 10 12 9 7 4 2 8 14 12 7 5 5 1 -5 -2 10 16 13 10 11 13 16 20 16 10 9 10 12 12 9 7 8 9 12 16 18 18 18 16 16 16 12 10
3 2 2 -1 -3 0 3 3 2 1 2 0 -3 2 12 11 2 -2 3 17 25 18 14 14 8 4 8 11 10 10 9 8 15 24 23 12 6 7 7 9 9 8 11 11 7 3 2 7 15 14 10 8 5 -1 -5 -2 7 15 14 10 10 12 16 19 16 10 7 10 12 11 8 6 6 7 10 15 19 18 17 17 16 15 12 9 9
3 3 4 1 -2 -0 1 3 3 0 -2 -2 -0 6 12 7 -1 0 11 24 25 14 12 12 5 4 8 9 9 12 10 8 17 23 11 -2 1 8 12 14 13 10 10 7 1 1 5 10 12 11 10 7 -3 -8 -2 8 13 13 10 9 11 15 18 14 8 7 10 13 11 7 5 6 8 10 13 17 18 16 15 16 14 13 11 10 12
3 3 4 3 1 0 0 3 3 -1 -2 2 5 6 6 2 2 9 19 26 23 14 10 9 7 8 9 7 9 13 9 9 18 18 4 -2 6 11 13 17 15 11 11 11 5 3 5 7 9 9 6 -0 -6 -2 9 13 11 9 9 12 16 17 12 5 6 13 15 9 5 4 6 10 14 15 16 18 17 16 15 15 14 13 12 13 13
2 2 3 4 4 2 1 3 2 0 1 4 6 6 5 5 8 16 22 23 19 12 6 7 11 10 8 9 11 9 10 17 22 14 3 4 9 9 11 16 15 12 14 13 7 4 7 9 6 2 -0 0 3 9 13 11 9 8 10 15 16 10 3 6 14 16 9 4 5 8 11 15 16 16 16 17 17 15 13 13 13 13 13 14 14
1 1 4 4 3 3 3 0 0 4 4 3 3 4 6 9 14 19 20 14 9 7 7 10 12 9 8 11 8 8 20 27 18 4 1 5 10 11 13 16 17 14 12 8 6 7 9 5 -2 -3 2 8 10 11 12 8 5 7 12 14 10 5 7 14 16 9 3 6 11 13 15 16 15 16 16 17 16 14 13 14 14 14 12 11 12
2 5 6 4 2 3 1 0 6 10 5 2 4 3 7 16 19 18 15 8 3 7 11 13 12 9 10 9 5 13 27 23 4 -3 3 10 13 13 14 17 17 11 6 5 6 4 1 -4 -4 2 9 12 13 12 9 6 7 10 12 9 8 12 16 14 9 5 7 13 15 15 17 17 17 17 16 15 15 14 15 16 14 11 9 7 9
8 8 4 2 3 2 3 7 12 9 2 3 6 6 11 20 19 13 11 6 3 7 12 13 10 8 8 7 8 18 24 12 -1 0 6 12 14 12 11 14 11 4 3 5 4 -0 -1 1 5 10 13 13 12 9 6 7 11 11 9 11 15 16 12 8 7 10 13 14 15 17 20 19 17 16 14 14 16 16 17 18 13 8 6 5 8
12 8 2 3 3 1 5 10 8 3 3 6 7 8 14 19 16 11 8 5 6 11 12 11 8 6 9 12 13 17 16 8 4 5 6 11 16 13 10 11 8 4 4 3 1 2 5 8 11 14 14 10 7 6 7 10 10 9 12 15 14 10 9 10 13 14 14 15 17 20 21 17 14 13 12 14 17 16 16 15 11 7 6 6 8
5 2 3 6 5 3 8 9 4 3 6 7 8 11 15 16 14 10 7 6 11 13 11 7 4 5 12 16 17 19 15 7 5 7 7 10 14 15 14 13 11 9 7 4 5 9 11 13 16 14 8 4 4 6 8 9 7 9 13 14 12 11 12 14 15 15 14 15 19 20 18 14 11 11 12 14 15 14 13 12 10 8 7 8 9
2 1 4 7 6 6 7 5 2 5 7 7 8 11 12 13 12 9 8 11 11 9 6 4 4 7 13 19 22 21 12 2 5 10 9 9 13 16 17 13 10 11 11 10 12 15 14 15 13 7 3 4 7 9 10 11 10 12 15 16 14 12 12 14 17 16 13 15 19 18 13 10 8 10 12 13 12 11 11 10 9 9 9 9 10
10 12 16 15 10 7 5 1 1 6 6 6 9 10 9 10 11 10 12 11 7 5 7 7 6 7 9 12 13 9 1 0 7 9 6 9 13 12 10 10 13 15 14 13 14 14 12 9 6 4 5 8 8 9 10 11 12 17 20 15 10 10 16 20 17 12 12 17 20 15 9 8 9 11 11 11 10 10 10 10 10 10 9 9 11
10 12 17 18 12 7 4 1 3 7 8 8 9 7 6 9 12 13 12 8 5 7 11 10 10 11 8 7 8 8 3 3 5 5 5 9 12 11 11 15 18 15 13 12 10 8 6 5 4 5 8 9 9 10 12 13 15 18 15 9 10 17 22 18 11 10 15 18 16 11 8 9 10 10 10 10 10 10 10 11 11 10 10 10 11
12 10 11 13 9 4 3 6 9 12 10 7 6 6 9 14 16 13 8 6 8 11 12 11 12 13 12 14 17 16 10 6 6 9 12 13 14 15 16 16 14 11 10 9 7 4 4 6 8 10 11 12 12 12 14 16 17 15 13 15 20 22 16 10 9 13 17 16 13 11 9 9 10 10 10 11 11 10 11 11 11 11 10 10 11
14 12 13 14 8 2 5 12 13 10 4 2 5 10 13 14 12 9 7 9 11 10 9 10 11 11 13 17 18 15 11 9 10 13 14 15 15 15 13 11 10 9 6 4 4 5 7 9 11 12 13 13 13 14 17 17 17 17 19 20 19 15 11 10 10 13 15 15 12 11 10 10 10 10 10 11 11 11 12 11 11 11 11 10 11
11 14 16 17 12 8 10 12 7 2 2 6 10 13 12 10 8 8 9 10 9 8 8 11 13 14 13 12 10 8 7 7 10 12 13 13 12 10 11 11 7 3 2 4 8 11 12 12 12 13 14 15 17 19 19 17 17 18 18 15 12 11 11 11 10 13 15 13 10 11 11 11 11 11 12 12 11 11 11 11 11 12 10 9 11
20 18 15 12 10 9 7 4 1 2 7 10 11 10 9 9 9 9 8 8 8 10 12 14 14 13 11 9 8 8 7 8 9 10 10 10 11 12 10 6 1 1 7 12 13 13 13 12 13 16 18 19 18 17 14 13 14 15 13 11 11 12 11 10 11 13 13 11 11 12 12 11 12 13 13 12 11 11 11 11 12 12 9 9 11
30 19 11 7 7 6 2 1 4 7 9 10 9 9 10 11 11 10 9 8 9 12 13 12 10 11 12 11 10 9 8 9 8 8 11 14 15 12 7 3 3 9 15 16 13 12 13 15 17 19 18 14 12 12 12 12 13 13 12 12 12 12 12 12 11 11 12 12 12 12 12 12 13 13 12 12 11 11 11 12 12 11 9 9 10
15 10 7 4 3 4 4 6 9 10 10 12 12 12 12 11 9 9 9 9 11 12 12 10 10 11 12 11 10 8 7 7 8 11 16 19 15 8 6 9 13 16 16 14 13 15 17 18 17 15 13 11 11 12 13 13 13 14 14 14 14 14 14 13 12 12 13 13 13 13 14 14 14 13 12 12 10 11 12 12 12 11 9 9 9
8 6 5 4 4 7 10 12 13 13 13 13 11 10 9 8 8 10 10 11 12 13 12 11 11 12 12 12 11 9 7 8 11 15 18 16 10 7 12 17 16 14 13 14 17 19 18 16 13 11 13 13 13 13 14 15 17 18 17 16 16 15 14 14 13 14 14 14 14 15 14 14 13 12 12 11 11 11 12 12 11 10 9 9 9
5 5 6 8 11 13 14 14 13 11 10 9 7 8 9 10 12 12 11 12 14 15 13 11 11 12 13 12 10 9 11 15 18 17 13 8 7 12 18 17 11 9 14 19 21 17 12 11 12 14 16 16 14 15 17 18 18 18 17 16 16 15 15 15 14 14 15 15 15 15 14 13 13 12 12 12 12 11 11 11 11 10 9 9 9
7 10 13 15 15 14 12 11 9 7 7 8 9 11 11 12 12 12 11 13 14 12 10 10 12 15 16 14 14 17 20 18 14 8 5 7 13 18 18 11 8 13 19 19 17 13 13 15 16 16 16 16 15 15 16 15 15 16 16 16 16 16 16 16 15 14 14 14 14 14 14 13 13 12 12 12 11 11 12 11 10 10 10 9 9
14 15 15 13 12 10 8 7 7 8 10 12 12 11 11 11 12 12 12 13 12 12 13 15 15 17 19 19 17 15 14 11 8 8 12 18 20 20 16 13 15 19 18 14 14 16 17 17 16 15 15 15 14 13 14 14 15 16 17 17 17 17 16 16 15 14 14 14 14 14 13 13 13 12 12 12 12 12 12 11 10 11 11 9 9
16 14 10 8 8 7 8 9 11 12 13 13 11 10 12 13 11 10 10 11 12 15 16 16 16 20 22 18 12 10 12 14 15 16 21 24 21 19 19 18 17 16 14 15 18 18 16 14 14 14 13 13 13 14 15 16 16 17 18 18 18 17 17 17 16 16 16 15 15 14 14 13 13 12 12 13 14 13 12 12 11 10 10 10 10
9 7 6 7 8 9 11 13 13 12 12 12 11 11 11 11 9 9 12 14 15 17 18 16 15 16 14 10 9 12 15 15 14 16 22 25 23 20 18 15 13 15 18 18 16 14 12 13 13 12 13 14 15 16 17 17 18 18 18 19 19 18 18 18 18 18 18 16 15 15 15 14 14 14 14 14 13 12 12 11 10 9 9 9 9
7 8 10 12 11 12 14 13 12 13 12 11 10 10 11 12 13 14 16 17 18 18 16 11 10 13 14 14 14 13 11 11 16 22 26 24 18 14 12 13 16 19 17 13 11 11 12 13 13 13 14 15 16 16 17 19 19 19 18 18 18 18 19 19 19 19 18 17 16 15 15 14 14 13 12 11 10 10 10 10 10 10 10 9 9
11 12 13 12 12 13 14 12 13 14 13 12 14 15 15 16 16 16 17 17 15 14 12 12 16 22 22 17 12 10 12 18 23 24 21 15 10 10 14 18 19 16 11 8 10 12 12 13 13 14 13 13 13 15 17 19 20 20 18 16 16 16 17 17 17 16 15 14 14 13 12 12 10 10 10 12 13 14 15 15 16 16 15 14 13
13 13 13 13 13 14 14 14 15 15 14 15 15 14 13 14 14 14 15 15 14 14 15 16 17 16 12 9 11 16 20 22 19 15 12 11 11 15 19 19 14 10 8 10 11 11 11 12 12 11 10 10 10 12 15 18 20 20 19 16 15 14 13 12 13 13 12 11 11 11 10 10 11 13 16 18 18 19 19 19 19 20 20 20 19
13 13 13 13 14 14 14 14 14 13 13 13 12 13 17 19 17 14 14 15 15 16 14 12 10 10 13 16 20 20 17 15 12 10 10 13 16 19 19 14 9 7 8 9 10 10 10 10 9 9 8 8 8 8 10 14 17 19 20 18 16 15 14 13 12 12 11 11 11 10 11 14 17 18 18 18 17 17 18 18 19 21 22 22 23
14 14 14 15 15 15 14 14 13 12 13 14 15 18 20 17 11 11 15 17 16 14 12 13 16 19 20 19 16 13 12 12 11 11 14 19 20 17 13 9 7 8 8 8 8 6 5 5 6 7 7 7 8 7 7 9 12 16 18 19 18 16 16 15 14 13 13 12 12 14 17 19 19 17 16 16 16 17 18 18 19 20 22 23 24
15 15 15 15 15 14 14 14 13 13 14 15 14 13 13 9 8 12 17 16 13 13 16 20 20 17 13 12 11 10 11 10 10 13 20 22 17 11 8 7 7 7 6 6 5 3 3 3 4 4 5 6 7 7 6 6 8 10 13 17 19 19 17 15 15 15 13 12 14 18 19 18 16 13 13 16 17 18 19 19 18 20 22 23 23
15 15 14 13 12 12 12 12 11 12 14 13 11 11 13 14 13 13 12 11 12 16 19 18 14 11 10 11 10 9 9 11 14 20 23 19 12 8 8 8 7 5 5 5 4 2 3 3 2 3 4 4 4 6 8 7 7 7 8 11 15 17 18 17 16 14 13 14 16 19 17 14 12 11 11 13 16 16 16 18 18 19 21 22 21
11 11 10 9 10 11 11 11 11 12 13 12 10 12 15 15 12 10 11 11 13 14 14 12 10 10 9 9 9 10 12 16 20 23 20 13 9 9 9 7 5 5 4 4 3 3 3 4 3 4 5 4 4 5 7 8 8 8 6 7 10 13 16 18 17 15 14 14 17 18 15 10 9 9 8 8 11 13 13 15 17 17 19 20 20
11 11 10 9 10 11 11 11 11 11 12 12 12 14 15 13 11 11 13 14 13 11 10 9 9 8 9 11 14 16 18 20 20 18 14 9 9 10 9 7 6 6 5 5 5 5 4 4 5 5 5 6 6 6 7 8 10 10 7 6 7 9 12 15 17 17 16 16 17 17 14 9 7 7 7 6 8 9 9 11 14 16 18 19 19
Height
5894 5894 5894 5895 5896 5896 5897 5897 5898 5898 5899 5899 5899 5898 5898 5898 5898 5897 5897 5896 5895 5894 5892 5891 5889 5887 5886 5885 5884 5882 5881 5878 5876 5874 5872 5869 5867 5865 5864 5863 5861 5860 5859 5858 5857 5857 5857 5856 5856 5856 5855 5855 5854 5853 5853 5852 5852 5851 5850 5849 5848 5847 5846 5844 5844 5843 5841 5839 5837 5836 5835 5833 5832 5830 5829 5828 5826 5825 5824 5822 5820 5818 5817 5815 5814
5892 5892 5893 5893 5894 5894 5895 5896 5896 5896 5897 5897 5896 5895 5896 5896 5896 5895 5894 5893 5892 5891 5890 5889 5887 5884 5883 5882 5880 5879 5878 5875 5873 5872 5870 5867 5865 5863 5862 5860 5859 5857 5856 5856 5855 5855 5855 5854 5853 5852 5852 5851 5850 5850 5849 5849 5848 5847 5846 5845 5844 5843 5841 5840 5839 5837 5836 5834 5834 5833 5832 5830 5828 5826 5825 5823 5821 5820 5818 5816 5814 5813 5811 5810 5808
5891 5891 5892 5892 5892 5893 5893 5894 5894 5894 5895 5894 5894 5893 5893 5894 5894 5893 5892 5891 5890 5889 5888 5886 5884 5882 5880 5879 5878 5876 5874 5872 5870 5869 5867 5865 5863 5860 5859 5858 5856 5855 5854 5854 5853 5853 5852 5850 5849 5849 5848 5847 5846 5846 5845 5844 5843 5842 5842 5841 5840 5838 5836 5834 5832 5832 5832 5831 5830 5829 5827 5825 5823 5820 5818 5817 5816 5814 5812 5810 5808 5807 5805 5803 5802
5889 5889 5890 5890 5891 5891 5891 5892 5892 5892 5892 5892 5891 5891 5892 5893 5892 5891 5890 5890 5888 5886 5885 5884 5881 5879 5878 5876 5874 5873 5871 5868 5865 5864 5864 5862 5860 5857 5855 5854 5853 5852 5851 5851 5850 5850 5849 5847 5846 5845 5844 5843 5842 5841 5840 5839 5838 5838 5837 5836 5835 5833 5832 5830 5828 5827 5828 5827 5825 5823 5821 5819 5817 5815 5812 5811 5809 5807 5805 5804 5802 5800 5798 5797 5795
5887 5888 5888 5888 5889 5889 5889 5890 5890 5890 5890 5890 5889 5889 5890 5892 5891 5889 5887 5886 5885 5884 5882 5881 5879 5877 5875 5873 5871 5870 5868 5866 5862 5861 5862 5860 5857 5854 5852 5850 5849 5848 5848 5847 5847 5846 5845 5844 5843 5842 5840 5839 5837 5836 5835 5834 5834 5833 5832 5831 5830 5829 5827 5826 5825 5823 5822 5821 5819 5817 5815 5813 5812 5810 5807 5805 5803 5801 5799 5798 5796 5794 5792 5790 5788
5885 5886 5886 5887 5887 5887 5887 5888 5887 5887 5887 5887 5887 5887 5888 5889 5889 5886 5884 5883 5882 5881 5879 5878 5876 5874 5872 5870 5868 5867 5865 5864 5861 5859 5859 5857 5854 5851 5849 5847 5846 5845 5844 5844 5843 5842 5841 5840 5839 5838 5836 5835 5833 5832 5831 5830 5829 5828 5827 5826 5825 5824 5822 5821 5820 5819 5817 5816 5814 5812 5810 5808 5806 5805 5802 5800 5798 5796 5794 5792 5790 5788 5786 5784 5782
5883 5884 5884 5885 5885 5885 5885 5885 5885 5885 5885 5885 5885 5885 5886 5886 5885 5883 5881 5880 5878 5877 5876 5875 5873 5870 5868 5866 5864 5863 5861 5860 5858 5856 5855 5853 5850 5848 5846 5844 5843 5842 5842 5841 5840 5839 5837 5836 5835 5833 5832 5830 5829 5828 5827 5826 5825 5824 5823 5822 5821 5820 5818 5816 5815 5814 5812 5811 5809 5808 5806 5803 5801 5799 5796 5794 5792 5790 5788 5787 5784 5781 5779 5777 5775
5881 5882 5882 5883 5883 5883 5883 5883 5883 5883 5883 5883 5882 5882 5883 5883 5881 5880 5878 5876 5874 5873 5872 5870 5868 5866 5864 5862 5860 5859 5857 5856 5854 5853 5851 5849 5846 5844 5843 5841 5840 5840 5838 5838 5836 5835 5833 5832 5830 5829 5827 5826 5825 5824 5823 5822 5821 5820 5819 5818 5816 5815 5813 5812 5810 5808 5807 5805 5804 5802 5800 5798 5795 5793 5790 5788 5785 5783 5782 5780 5778 5775 5773 5771 5769
5879 5879 5880 5880 5881 5881 5880 5880 5880 5880 5880 5880 5880 5879 5880 5879 5877 5876 5875 5873 5870 5869 5867 5866 5864 5861 5859 5858 5856 5854 5853 5852 5851 5849 5847 5845 5842 5841 5840 5838 5837 5837 5835 5834 5833 5831 5830 5828 5827 5825 5823 5822 5821 5820 5819 5817 5816 5816 5814 5813 5812 5810 5809 5808 5806 5804 5802 5800 5798 5796 5794 5792 5789 5786 5785 5782 5779 5777 5775 5773 5771 5769 5766 5765 5762
5876 5877 5878 5878 5878 5878 5878 5877 5877 5877 5877 5877 5876 5876 5876 5875 5874 5872 5871 5869 5866 5864 5863 5861 5859 5857 5855 5854 5853 5851 5849 5849 5847 5845 5843 5841 5839 5838 5836 5834 5834 5834 5832 5831 5830 5828 5826 5825 5823 5822 5821 5820 5818 5817 5815 5813 5812 5811 5810 5808 5807 5806 5805 5803 5801 5799 5798 5795 5793 5790 5788 5786 5783 5780 5778 5776 5774 5771 5768 5766 5764 5762 5759 5758 5756
5874 5874 5875 5875 5875 5875 5875 5874 5874 5874 5874 5873 5873 5873 5872 5872 5870 5868 5867 5865 5863 5860 5858 5857 5855 5852 5851 5850 5849 5847 5846 5845 5843 5841 5839 5837 5836 5834 5832 5831 5830 5830 5828 5827 5826 5824 5823 5821 5820 5819 5818 5816 5814 5813 5812 5809 5807 5806 5805 5804 5803 5801 5799 5798 5796 5794 5792 5790 5788 5785 5782 5779 5776 5774 5771 5769 5767 5765 5762 5760 5758 5756 5753 5751 5750
5871 5872 5872 5872 5872 5872 5871 5871 5871 5871 5870 5870 5870 5869 5869 5867 5866 5864 5863 5861 5859 5856 5854 5852 5850 5848 5847 5846 5845 5843 5842 5841 5839 5837 5835 5833 5832 5830 5828 5827 5826 5825 5824 5823 5822 5820 5819 5818 5817 5816 5815 5813 5811 5810 5809 5806 5804 5802 5801 5800 5798 5795 5793 5792 5790 5788 5786 5785 5783 5779 5776 5773 5771 5768 5765 5762 5761 5758 5755 5753 5751 5749 5747 5745 5744
5868 5868 5869 5869 5869 5868 5868 5868 5868 5867 5867 5866 5866 5865 5865 5863 5861 5860 5858 5857 5854 5852 5849 5847 5845 5843 5842 5842 5840 5838 5838 5837 5836 5833 5830 5829 5827 5825 5824 5823 5823 5822 5820 5819 5817 5816 5815 5814 5814 5813 5811 5809 5807 5806 5805 5803 5800 5798 5796 5794 5793 5790 5788 5786 5784 5783 5781 5779 5777 5773 5770 5767 5765 5762 5759 5756 5754 5752 5749 5747 5744 5743 5741 5739 5738
5865 5865 5865 5865 5865 5865 5865 5865 5865 5864 5863 5863 5862 5861 5860 5859 5858 5856 5854 5852 5850 5847 5845 5842 5840 5838 5837 5837 5835 5834 5833 5833 5831 5828 5826 5824 5822 5820 5819 5819 5819 5818 5817 5815 5814 5813 5811 5810 5809 5808 5807 5806 5804 5803 5801 5799 5796 5793 5791 5789 5787 5785 5783 5781 5779 5777 5775 5773 5770 5767 5764 5761 5759 5756 5753 5750 5748 5746 5744 5741 5739 5736 5734 5733 5732
5861 5861 5862 5862 5862 5862 5862 5861 5861 5860 5859 5858 5858 5857 5856 5855 5853 5851 5849 5847 5846 5843 5841 5838 5836 5834 5833 5832 5831 5829 5828 5827 5825 5823 5821 5819 5817 5816 5815 5815 5815 5814 5813 5811 5811 5809 5807 5806 5805 5804 5803 5802 5801 5799 5798 5795 5793 5790 5788 5785 5783 5780 5778 5776 5773 5771 5769 5767 5764 5761 5758 5755 5752 5750 5747 5744 5742 5740 5737 5735 5733 5730 5728 5728 5727
5858 5858 5858 5858 5859 5858 5858 5858 5857 5856 5855 5854 5854 5852 5851 5850 5848 5847 5845 5843 5841 5839 5837 5835 5833 5831 5829 5828 5827 5825 5823 5823 5821 5819 5817 5815 5813 5812 5812 5811 5811 5810 5809 5808 5807 5805 5803 5801 5801 5800 5799 5798 5796 5795 5793 5791 5790 5788 5785 5782 5780 5777 5774 5771 5768 5765 5763 5760 5758 5755 5752 5749 5746 5743 5741 5738 5736 5734 5732 5730 5727 5724 5723 5722 5721
5854 5854 5854 5854 5854 5854 5854 5854 5853 5852 5851 5850 5849 5848 5846 5845 5844 5842 5840 5838 5836 5835 5833 5831 5829 5827 5825 5824 5823 5821 5820 5818 5817 5815 5813 5811 5809 5809 5808 5808 5807 5806 5805 5804 5803 5801 5798 5797 5796 5795 5794 5793 5792 5790 5788 5786 5785 5783 5780 5778 5775 5772 5769 5765 5763 5760 5758 5755 5752 5749 5746 5743 5740 5738 5735 5732 5730 5728 5726 5724 5721 5718 5717 5716 5715
5851 5851 5850 5850 5850 5850 5850 5850 5849 5848 5848 5846 5845 5843 5842 5841 5839 5837 5835 5833 5831 5830 5829 5827 5824 5822 5821 5820 5818 5817 5815 5814 5813 5811 5809 5807 5806 5806 5805 5804 5804 5802 5801 5800 5798 5796 5793 5793 5791 5789 5788 5788 5786 5784 5782 5781 5779 5777 5774 5772 5769 5766 5763 5760 5757 5754 5752 5750 5747 5743 5740 5738 5735 5733 5729 5727 5724 5721 5720 5718 5715 5713 5711 5709 5708
5847 5847 5846 5846 5846 5846 5846 5846 5845 5844 5843 5842 5840 5839 5837 5836 5835 5832 5830 5829 5827 5825 5824 5822 5820 5818 5816 5815 5814 5812 5811 5809 5808 5807 5805 5803 5803 5803 5802 5801 5800 5798 5796 5795 5793 5791 5790 5788 5786 5784 5783 5782 5780 5779 5777 5775 5773 5770 5768 5765 5762 5759 5756 5754 5751 5749 5746 5743 5741 5738 5735 5732 5730 5727 5724 5722 5718 5715 5714 5712 5710 5707 5705 5704 5702
5842 5842 5842 5841 5841 5841 5841 5841 5841 5840 5839 5837 5835 5834 5833 5831 5830 5827 5825 5824 5822 5820 5819 5817 5815 5813 5811 5810 5808 5807 5805 5804 5803 5802 5801 5799 5799 5799 5798 5797 5794 5793 5791 5789 5787 5786 5785 5783 5781 5779 5778 5776 5775 5773 5771 5769 5766 5763 5760 5758 5755 5753 5750 5748 5746 5743 5740 5737 5734 5732 5729 5726 5724 5721 5718 5716 5713 5710 5709 5707 5705 5702 5700 5698 5696
5838 5837 5836 5836 5836 5836 5836 5836 5836 5835 5834 5832 5831 5830 5828 5826 5825 5822 5820 5819 5817 5816 5814 5811 5809 5807 5805 5804 5802 5801 5799 5798 5798 5798 5797 5795 5794 5793 5792 5791 5788 5786 5785 5784 5782 5781 5779 5778 5776 5775 5772 5770 5768 5767 5765 5762 5759 5756 5753 5751 5749 5747 5745 5742 5739 5737 5734 5731 5728 5726 5723 5720 5718 5715 5712 5710 5707 5705 5703 5701 5699 5697 5694 5692 5690
5832 5832 5831 5831 5831 5831 5831 5831 5830 5829 5828 5827 5826 5824 5823 5821 5819 5818 5816 5814 5813 5811 5809 5806 5804 5802 5800 5798 5797 5794 5793 5792 5793 5793 5792 5790 5789 5788 5786 5785 5783 5780 5778 5777 5776 5775 5773 5772 5771 5769 5767 5764 5762 5760 5758 5755 5752 5750 5747 5745 5743 5741 5739 5736 5734 5731 5728 5725 5722 5720 5717 5714 5712 5709 5707 5704 5702 5700 5698 5696 5694 5692 5689 5687 5684
5826 5826 5826 5826 5825 5826 5826 5825 5825 5824 5823 5822 5820 5819 5817 5815 5814 5813 5811 5810 5808 5806 5804 5801 5799 5797 5795 5794 5792 5789 5787 5788 5788 5787 5786 5785 5783 5781 5780 5778 5776 5774 5773 5772 5771 5769 5767 5766 5765 5763 5761 5759 5756 5754 5751 5749 5746 5743 5741 5740 5737 5735 5733 5730 5728 5725 5722 5719 5716 5714 5711 5709 5706 5704 5701 5699 5697 5695 5693 5691 5689 5687 5684 5682 5680
5820 5820 5820 5820 5820 5821 5821 5820 5819 5819 5817 5816 5815 5813 5812 5810 5809 5808 5806 5805 5803 5801 5799 5796 5794 5792 5790 5789 5787 5784 5782 5783 5783 5781 5780 5779 5777 5775 5773 5771 5770 5769 5768 5767 5766 5763 5762 5760 5759 5757 5754 5753 5750 5748 5745 5743 5740 5738 5736 5734 5732 5729 5727 5725 5722 5719 5716 5713 5711 5708 5705 5703 5701 5698 5696 5694 5692 5690 5689 5686 5684 5682 5680 5678 5676
5814 5814 5814 5814 5815 5816 5815 5815 5814 5813 5811 5810 5809 5808 5806 5804 5803 5802 5800 5799 5798 5796 5794 5792 5789 5787 5786 5784 5782 5780 5778 5777 5776 5776 5775 5773 5772 5770 5768 5766 5765 5764 5762 5761 5759 5757 5756 5754 5752 5750 5748 5746 5744 5742 5739 5737 5734 5732 5731 5728 5726 5724 5721 5718 5716 5713 5710 5707 5705 5702 5700 5697 5695 5693 5691 5690 5688 5686 5684 5682 5680 5678 5675 5673 5672
5808 5807 5808 5809 5810 5810 5809 5808 5808 5806 5805 5804 5803 5802 5800 5799 5797 5796 5795 5794 5792 5791 5789 5787 5784 5782 5781 5780 5778 5776 5775 5773 5772 5771 5770 5768 5767 5765 5764 5762 5760 5758 5757 5755 5753 5751 5749 5747 5746 5744 5742 5740 5738 5735 5733 5731 5729 5727 5725 5722 5720 5717 5715 5712 5710 5707 5704 5702 5699 5697 5694 5692 5690 5689 5687 5685 5684 5682 5680 5678 5676 5673 5671 5669 5668
5802 5802 5803 5804 5804 5804 5803 5802 5801 5800 5799 5798 5797 5796 5795 5793 5792 5790 5789 5788 5787 5786 5784 5781 5778 5776 5776 5775 5773 5771 5770 5768 5767 5765 5764 5763 5761 5760 5758 5757 5755 5753 5751 5749 5747 5746 5744 5742 5740 5738 5736 5734 5732 5729 5727 5725 5723 5721 5719 5716 5714 5711 5709 5706 5703 5701 5699 5696 5694 5691 5689 5688 5686 5684 5683 5681 5679 5677 5675 5673 5671 5669 5667 5665 5663
5798 5798 5798 5798 5798 5797 5797 5796 5796 5795 5794 5793 5792 5790 5789 5787 5786 5785 5784 5783 5782 5781 5779 5776 5773 5771 5770 5769 5767 5765 5764 5763 5762 5759 5758 5756 5755 5754 5752 5751 5749 5747 5745 5743 5742 5741 5738 5736 5734 5732 5730 5727 5725 5723 5721 5719 5717 5714 5712 5709 5707 5704 5702 5700 5698 5696 5694 5691 5689 5687 5685 5683 5681 5680 5678 5677 5675 5672 5670 5668 5666 5664 5662 5661 5659
5794 5794 5793 5793 5792 5792 5791 5790 5790 5789 5788 5787 5786 5785 5783 5782 5780 5779 5778 5777 5776 5775 5774 5771 5769 5767 5766 5764 5761 5759 5757 5756 5756 5754 5752 5750 5749 5747 5746 5745 5743 5741 5740 5738 5737 5735 5733 5731 5728 5726 5724 5721 5719 5717 5716 5713 5711 5708 5706 5704 5701 5699 5697 5694 5692 5690 5689 5686 5684 5682 5681 5679 5678 5676 5674 5672 5670 5668 5666 5664 5662 5660 5658 5657 5655
5789 5788 5787 5788 5787 5786 5785 5785 5784 5784 5782 5781 5780 5779 5777 5776 5775 5774 5772 5771 5771 5769 5768 5767 5765 5764 5762 5760 5757 5754 5751 5750 5750 5748 5746 5744 5743 5741 5740 5739 5738 5736 5734 5732 5731 5729 5727 5725 5722 5720 5718 5715 5712 5710 5709 5707 5704 5702 5699 5698 5696 5693 5692 5690 5687 5685 5684 5682 5680 5678 5677 5675 5674 5672 5670 5668 5666 5664 5662 5660 5658 5657 5655 5653 5652
5782 5781 5781 5782 5781 5780 5780 5779 5779 5778 5776 5775 5774 5773 5772 5771 5770 5768 5767 5766 5765 5764 5763 5761 5760 5759 5758 5756 5753 5750 5747 5746 5744 5742 5739 5738 5737 5736 5735 5734 5733 5731 5729 5726 5724 5722 5720 5718 5716 5713 5711 5708 5705 5703 5701 5699 5697 5695 5693 5691 5689 5687 5686 5685 5683 5681 5679 5677 5675 5674 5672 5671 5669 5667 5665 5663 5662 5660 5658 5656 5655 5653 5651 5649 5648
5775 5775 5775 5775 5775 5774 5774 5773 5773 5772 5771 5769 5768 5767 5766 5765 5764 5762 5761 5760 5759 5758 5757 5755 5754 5753 5753 5750 5748 5745 5743 5741 5739 5737 5734 5732 5731 5731 5730 5728 5727 5725 5723 5720 5718 5716 5714 5712 5710 5707 5705 5702 5700 5697 5695 5693 5691 5689 5687 5686 5684 5682 5681 5680 5678 5676 5674 5673 5671 5669 5668 5666 5665 5663 5661 5659 5658 5656 5654 5653 5651 5649 5647 5646 5644
5769 5769 5769 5769 5768 5768 5767 5767 5766 5766 5765 5764 5763 5762 5760 5759 5758 5756 5755 5754 5753 5752 5751 5749 5748 5747 5747 5745 5742 5740 5738 5736 5734 5732 5730 5728 5727 5725 5724 5722 5721 5719 5717 5714 5713 5711 5708 5706 5704 5702 5700 5697 5695 5693 5691 5688 5686 5684 5683 5681 5679 5678 5676 5675 5673 5671 5669 5668 5666 5665 5663 5662 5660 5659 5657 5655 5654 5652 5651 5649 5648 5646 5644 5642 5640
5763 5763 5763 5762 5762 5761 5761 5761 5760 5760 5759 5758 5757 5756 5754 5753 5752 5751 5749 5748 5746 5745 5744 5743 5742 5741 5740 5738 5736 5735 5733 5730 5729 5727 5725 5724 5722 5720 5718 5717 5715 5713 5711 5709 5707 5705 5703 5700 5698 5696 5695 5693 5690 5688 5686 5684 5682 5680 5678 5676 5675 5673 5672 5670 5668 5666 5665 5663 5662 5661 5659 5658 5656 5655 5653 5652 5650 5649 5647 5646 5644 5642 5641 5639 5637
5756 5757 5757 5756 5756 5755 5755 5755 5754 5754 5753 5752 5751 5750 5748 5746 5746 5745 5744 5742 5741 5739 5738 5736 5735 5734 5733 5731 5729 5728 5727 5725 5723 5722 5720 5718 5716 5714 5713 5711 5709 5707 5706 5704 5702 5700 5697 5695 5693 5691 5690 5688 5686 5683 5681 5679 5677 5675 5674 5672 5670 5668 5667 5665 5664 5662 5660 5659 5658 5656 5655 5653 5652 5651 5649 5648 5647 5645 5644 5642 5641 5639 5637 5635 5634
5750 5750 5751 5750 5750 5750 5750 5749 5748 5747 5746 5746 5745 5743 5742 5741 5740 5739 5738 5736 5735 5733 5731 5729 5728 5727 5726 5724 5723 5722 5720 5719 5717 5716 5714 5712 5711 5709 5707 5705 5703 5702 5701 5699 5697 5694 5692 5690 5688 5686 5684 5683 5681 5679 5677 5674 5673 5671 5669 5667 5665 5663 5662 5660 5659 5657 5656 5655 5653 5652 5651 5649 5648 5647 5645 5644 5643 5642 5640 5639 5637 5635 5634 5632 5630
5745 5745 5745 5745 5744 5744 5744 5743 5742 5741 5740 5739 5738 5737 5736 5735 5734 5733 5731 5730 5729 5727 5725 5723 5722 5721 5719 5718 5717 5715 5714 5712 5711 5710 5708 5707 5705 5703 5701 5699 5698 5697 5696 5694 5692 5690 5687 5685 5683 5682 5680 5678 5676 5674 5672 5670 5668 5666 5664 5662 5660 5658 5657 5655 5654 5653 5652 5650 5649 5648 5647 5645 5644 5643 5642 5640 5639 5638 5637 5635 5634 5632 5630 5628 5627
5739 5740 5739 5738 5738 5738 5737 5737 5736 5735 5734 5733 5732 5731 5730 5729 5727 5726 5725 5724 5722 5720 5719 5717 5716 5714 5713 5712 5711 5709 5708 5707 5705 5704 5703 5701 5700 5698 5696 5694 5692 5691 5690 5689 5687 5685 5683 5681 5680 5678 5676 5674 5672 5669 5668 5666 5664 5662 5659 5657 5656 5654 5652 5651 5650 5649 5648 5646 5645 5644 5643 5641 5640 5639 5638 5637 5636 5634 5633 5631 5630 5628 5627 5625 5624
5733 5733 5733 5733 5732 5732 5731 5730 5730 5729 5729 5728 5727 5725 5724 5722 5721 5720 5719 5718 5717 5715 5713 5712 5710 5709 5707 5706 5705 5704 5702 5701 5700 5698 5697 5696 5694 5692 5690 5689 5687 5686 5685 5683 5682 5680 5679 5677 5676 5674 5672 5670 5667 5665 5663 5661 5659 5657 5655 5653 5651 5650 5649 5647 5646 5645 5643 5642 5641 5640 5639 5638 5637 5636 5634 5633 5632 5631 5629 5628 5626 5625 5623 5622 5621
5727 5727 5727 5727 5727 5726 5726 5725 5724 5724 5723 5722 5720 5719 5717 5716 5714 5713 5712 5712 5711 5709 5708 5706 5705 5703 5701 5700 5699 5698 5696 5695 5694 5693 5692 5690 5688 5687 5685 5684 5682 5682 5681 5679 5678 5676 5675 5673 5672 5670 5668 5666 5664 5662 5660 5657 5655 5653 5651 5649 5647 5646 5645 5643 5642 5641 5640 5638 5637 5636 5635 5634 5633 5632 5631 5630 5628 5627 5626 5624 5623 5621 5620 5619 5618
5721 5721 5721 5721 5721 5721 5720 5719 5718 5717 5716 5715 5713 5712 5711 5710 5708 5707 5706 5705 5704 5703 5702 5700 5699 5698 5696 5695 5693 5692 5691 5689 5688 5687 5687 5685 5683 5682 5681 5679 5678 5677 5677 5676 5674 5673 5671 5670 5668 5666 5665 5663 5661 5659 5656 5654 5651 5649 5648 5646 5644 5643 5641 5640 5638 5637 5636 5635 5634 5633 5632 5631 5629 5628 5627 5626 5625 5623 5622 5621 5619 5618 5617 5616 5614
5716 5716 5715 5715 5715 5715 5714 5713 5712 5711 5709 5708 5707 5706 5704 5703 5702 5701 5700 5699 5698 5697 5696 5694 5694 5693 5692 5690 5688 5686 5685 5684 5682 5681 5681 5680 5679 5677 5677 5676 5675 5674 5673 5672 5671 5670 5668 5667 5665 5663 5662 5660 5658 5656 5653 5651 5648 5646 5645 5643 5641 5639 5638 5636 5635 5634 5633 5632 5630 5629 5628 5627 5626 5625 5624 5623 5621 5620 5618 5617 5616 5614 5613 5612 5611
5711 5711 5710 5709 5708 5708 5708 5707 5706 5704 5703 5702 5701 5700 5699 5698 5697 5695 5694 5694 5693 5691 5690 5689 5688 5688 5687 5685 5683 5681 5680 5679 5677 5676 5675 5675 5674 5673 5673 5672 5671 5671 5670 5668 5667 5666 5665 5664 5663 5661 5659 5658 5655 5653 5650 5648 5646 5644 5642 5640 5639 5637 5635 5634 5632 5631 5630 5629 5628 5626 5625 5624 5623 5622 5620 5619 5618 5616 5615 5613 5612 5611 5610 5609 5608
5705 5704 5704 5703 5702 5702 5702 5701 5699 5698 5697 5696 5695 5694 5693 5692 5691 5690 5689 5688 5687 5686 5684 5683 5683 5682 5681 5679 5678 5677 5675 5674 5672 5671 5671 5670 5670 5670 5669 5669 5668 5668 5667 5666 5665 5664 5663 5661 5660 5659 5657 5655 5652 5650 5648 5646 5643 5642 5640 5638 5636 5635 5633 5632 5630 5629 5628 5626 5625 5624 5623 5621 5620 5619 5617 5616 5614 5612 5611 5609 5608 5607 5606 5605 5604
5698 5698 5698 5697 5697 5697 5696 5695 5694 5693 5692 5691 5690 5689 5688 5687 5686 5685 5684 5683 5682 5680 5679 5678 5678 5677 5676 5674 5673 5672 5671 5669 5669 5668 5668 5667 5666 5666 5666 5666 5665 5665 5664 5663 5662 5662 5660 5659 5658 5657 5655 5652 5650 5648 5646 5644 5642 5640 5638 5636 5634 5633 5631 5630 5628 5627 5626 5624 5623 5621 5620 5618 5617 5615 5614 5612 5610 5608 5607 5605 5604 5603 5602 5601 5601
5693 5692 5692 5691 5691 5691 5690 5690 5689 5688 5687 5686 5685 5684 5683 5681 5680 5680 5679 5678 5676 5675 5674 5673 5673 5673 5672 5670 5669 5668 5667 5666 5665 5665 5665 5664 5664 5663 5663 5663 5662 5662 5661 5661 5660 5659 5658 5657 5656 5654 5652 5650 5648 5646 5644 5642 5640 5638 5636 5634 5633 5631 5629 5628 5626 5625 5623 5622 5620 5619 5617 5615 5614 5612 5610 5609 5607 5605 5603 5602 5601 5600 5599 5598 5597
5687 5687 5687 5686 5686 5685 5684 5684 5683 5682 5681 5681 5680 5679 5678 5676 5675 5674 5674 5673 5671 5670 5669 5668 5668 5668 5667 5666 5665 5664 5664 5663 5662 5662 5662 5661 5661 5660 5660 5660 5659 5659 5659 5658 5658 5657 5656 5655 5653 5652 5650 5648 5646 5644 5642 5640 5638 5636 5635 5633 5631 5629 5627 5626 5624 5622 5621 5619 5618 5616 5614 5613 5611 5610 5608 5606 5605 5603 5601 5600 5598 5597 5596 5595 5594
5681 5681 5681 5681 5680 5680 5679 5679 5678 5677 5676 5675 5675 5674 5673 5672 5670 5669 5669 5668 5667 5665 5664 5663 5663 5663 5662 5662 5661 5660 5660 5660 5659 5659 5658 5658 5658 5658 5657 5657 5657 5657 5656 5656 5655 5654 5654 5652 5651 5649 5647 5646 5644 5642 5640 5639 5637 5635 5633 5631 5629 5627 5625 5624 5622 5620 5619 5617 5615 5613 5612 5611 5609 5608 5606 5605 5603 5601 5599 5598 5596 5595 5594 5593 5592
5676 5676 5676 5675 5675 5675 5674 5673 5672 5671 5671 5670 5669 5668 5668 5667 5665 5664 5664 5663 5662 5661 5660 5659 5659 5658 5658 5657 5657 5656 5656 5656 5656 5655 5655 5655 5655 5655 5655 5655 5654 5654 5654 5653 5652 5652 5651 5649 5648 5646 5645 5643 5641 5640 5638 5637 5635 5633 5631 5629 5627 5625 5623 5622 5620 5618 5616 5615 5613 5611 5610 5609 5608 5606 5605 5604 5602 5600 5598 5596 5595 5594 5592 5591 5590
5671 5671 5670 5670 5669 5669 5668 5667 5666 5666 5665 5664 5663 5663 5662 5661 5660 5660 5659 5658 5658 5657 5656 5655 5655 5654 5654 5654 5653 5653 5652 5652 5652 5652 5652 5652 5652 5653 5653 5652 5652 5651 5651 5650 5649 5648 5647 5646 5645 5644 5642 5641 5639 5638 5636 5634 5633 5631 5629 5627 5625 5623 5622 5620 5618 5616 5614 5613 5611 5610 5609 5608 5606 5605 5604 5603 5601 5599 5598 5596 5594 5593 5591 5590 5589
5666 5665 5665 5664 5664 5663 5662 5661 5661 5660 5659 5658 5658 5658 5657 5656 5655 5655 5655 5654 5653 5653 5652 5651 5651 5650 5650 5650 5650 5649 5649 5649 5649 5649 5649 5649 5649 5650 5650 5649 5649 5649 5648 5647 5646 5645 5644 5643 5642 5641 5639 5638 5636 5635 5633 5632 5630 5628 5627 5625 5623 5621 5620 5618 5616 5614 5612 5611 5609 5608 5607 5606 5605 5604 5603 5602 5600 5599 5597 5595 5594 5592 5591 5590 5589